KA9CBS Weather Reports


Display with metric or nautical units.
time (UTC)temp
F
wind
direction
speed
MPH
gust
MPH
rain 1hr
in
rain 24hr
in
rain mn
in
humidity
%
barometer
mb
20260905234426 94 110 3.0 3.0 0.00 0.00 0.00 53 1013.0
20260905233921 94 124 2.0 2.0 0.00 0.00 0.00 53 1013.1
20260905233417 94 118 2.0 2.0 0.00 0.00 0.00 53 1012.9
20260905232915 94 75 4.0 5.0 0.00 0.00 0.00 53 1013.2
20260905232412 95 101 2.0 3.0 0.00 0.00 0.00 52 1013.0
20260905231906 95 78 4.0 5.0 0.00 0.00 0.00 50 1013.1
20260905231402 95 53 6.0 9.0 0.00 0.00 0.00 50 1012.8
20260905230859 95 62 6.0 7.0 0.00 0.00 0.00 50 1012.9
20260905230356 96 102 3.0 3.0 0.00 0.00 0.00 49 1012.9
20260905225850 96 61 3.0 6.0 0.00 0.00 0.00 49 1012.6
20260905225345 97 50 9.0 13.0 0.00 0.00 0.00 48 1013.0
20260905224840 98 82 2.0 3.0 0.00 0.00 0.00 45 1012.7
20260905224336 98 89 3.0 3.0 0.00 0.00 0.00 44 1012.8
20260905223836 98 148 0.0 1.0 0.00 0.00 0.00 45 1012.8
20260905223334 98 79 2.0 2.0 0.00 0.00 0.00 45 1012.8
20260905222828 98 103 2.0 2.0 0.00 0.00 0.00 45 1013.0
20260905222327 98 71 5.0 6.0 0.00 0.00 0.00 45 1012.6
20260905221823 99 105 2.0 2.0 0.00 0.00 0.00 45 1012.5
20260905221320 100 144 0.0 1.0 0.00 0.00 0.00 49 1012.5
20260905220816 98 95 2.0 2.0 0.00 0.00 0.00 46 1012.6
20260905220312 98 115 3.0 3.0 0.00 0.00 0.00 47 1012.6
20260905215811 98 109 2.0 3.0 0.00 0.00 0.00 48 1012.7
20260905215307 98 71 3.0 6.0 0.00 0.00 0.00 46 1012.7
20260905214802 99 56 4.0 9.0 0.00 0.00 0.00 46 1012.7
20260905214258 98 139 2.0 2.0 0.00 0.00 0.00 46 1012.5
20260905213753 97 82 4.0 5.0 0.00 0.00 0.00 47 1012.7
20260905213250 97 51 3.0 3.0 0.00 0.00 0.00 47 1012.6
20260905212744 97 62 5.0 6.0 0.00 0.00 0.00 46 1012.6
20260905212243 98 78 3.0 5.0 0.00 0.00 0.00 46 1012.7
20260905211743 99 134 1.0 1.0 0.00 0.00 0.00 46 1012.9
20260905211238 99 140 1.0 1.0 0.00 0.00 0.00 46 1012.8
20260905210735 99 107 2.0 2.0 0.00 0.00 0.00 42 1013.0
20260905210235 99 87 3.0 3.0 0.00 0.00 0.00 45 1012.8
20260905205733 100 56 7.0 9.0 0.00 0.00 0.00 41 1013.1
20260905205228 100 98 3.0 6.0 0.00 0.00 0.00 40 1012.8
20260905204723 99 71 5.0 6.0 0.00 0.00 0.00 42 1013.0
20260905204218 100 63 2.0 2.0 0.00 0.00 0.00 42 1012.9
20260905203718 100 132 1.0 1.0 0.00 0.00 0.00 42 1013.3
20260905203213 100 137 2.0 3.0 0.00 0.00 0.00 43 1013.0
20260905202708 100 70 5.0 6.0 0.00 0.00 0.00 42 1013.4
20260905202203 99 139 1.0 2.0 0.00 0.00 0.00 44 1013.4
20260905201659 99 55 5.0 9.0 0.00 0.00 0.00 44 1013.4
20260905201159 99 79 4.0 6.0 0.00 0.00 0.00 43 1013.2
20260905200654 99 113 3.0 5.0 0.00 0.00 0.00 42 1013.4
20260905200150 100 59 6.0 7.0 0.00 0.00 0.00 44 1013.4
20260905195648 100 66 9.0 11.0 0.00 0.00 0.00 43 1013.6
20260905195143 99 73 5.0 7.0 0.00 0.00 0.00 44 1013.3
20260905194638 99 88 3.0 5.0 0.00 0.00 0.00 44 1013.5
20260905194138 98 74 5.0 6.0 0.00 0.00 0.00 45 1013.8
20260905193632 98 75 3.0 7.0 0.00 0.00 0.00 46 1013.8
20260905193127 100 57 8.0 9.0 0.00 0.00 0.00 45 1013.9
20260905192623 99 158 0.0 0.0 0.00 0.00 0.00 46 1013.7
20260905192119 100 111 1.0 2.0 0.00 0.00 0.00 45 1014.1
20260905191618 99 85 3.0 3.0 0.00 0.00 0.00 47 1013.9
20260905191117 99 152 2.0 2.0 0.00 0.00 0.00 47 1014.0
20260905190615 99 86 2.0 2.0 0.00 0.00 0.00 47 1014.3
20260905190115 98 142 1.0 1.0 0.00 0.00 0.00 49 1014.2
20260905185613 98 62 4.0 5.0 0.00 0.00 0.00 49 1014.2
20260905185108 99 74 2.0 5.0 0.00 0.00 0.00 49 1014.3
20260905184603 100 132 1.0 2.0 0.00 0.00 0.00 48 1014.1
20260905184102 100 147 1.0 2.0 0.00 0.00 0.00 48 1014.2
20260905183601 99 135 0.0 1.0 0.00 0.00 0.00 48 1014.7
20260905183057 99 151 1.0 1.0 0.00 0.00 0.00 47 1014.4
20260905182551 98 130 1.0 2.0 0.00 0.00 0.00 49 1014.5
20260905182050 98 129 1.0 1.0 0.00 0.00 0.00 50 1014.6
20260905181545 98 149 1.0 1.0 0.00 0.00 0.00 49 1014.6
20260905181045 98 147 0.0 0.0 0.00 0.00 0.00 49 1014.6
20260905180545 98 146 0.0 1.0 0.00 0.00 0.00 49 1014.8
20260905180041 98 303 3.0 3.0 0.00 0.00 0.00 49 1014.9
20260905175539 98 153 0.0 1.0 0.00 0.00 0.00 49 1014.8
20260905175036 99 142 2.0 2.0 0.00 0.00 0.00 48 1014.8
20260905174531 98 139 1.0 1.0 0.00 0.00 0.00 50 1014.8
20260905174026 100 96 3.0 3.0 0.00 0.00 0.00 49 1014.9
20260905173523 100 161 0.0 0.0 0.00 0.00 0.00 47 1014.8
20260905173018 99 153 0.0 1.0 0.00 0.00 0.00 49 1014.9
20260905172516 99 163 0.0 0.0 0.00 0.00 0.00 49 1014.9
20260905172012 99 153 2.0 3.0 0.00 0.00 0.00 50 1015.3
20260905171508 98 155 3.0 3.0 0.00 0.00 0.00 50 1015.2
20260905171004 97 139 1.0 2.0 0.00 0.00 0.00 52 1015.2
20260905170500 96 142 1.0 1.0 0.00 0.00 0.00 52 1015.3
20260905165959 98 57 4.0 5.0 0.00 0.00 0.00 51 1015.3
20260905165455 97 86 2.0 2.0 0.00 0.00 0.00 51 1015.4
20260905164950 96 145 1.0 1.0 0.00 0.00 0.00 52 1015.2
20260905164444 97 84 1.0 1.0 0.00 0.00 0.00 53 1015.6
20260905163939 96 155 0.0 1.0 0.00 0.00 0.00 53 1015.7
20260905163436 96 151 3.0 3.0 0.00 0.00 0.00 54 1015.8
20260905162931 96 84 2.0 2.0 0.00 0.00 0.00 55 1015.8
20260905162426 96 128 2.0 3.0 0.00 0.00 0.00 55 1016.0
20260905161921 95 155 1.0 1.0 0.00 0.00 0.00 56 1016.0
20260905161420 96 96 2.0 2.0 0.00 0.00 0.00 57 1016.1
20260905160918 96 162 1.0 1.0 0.00 0.00 0.00 57 1016.1
20260905160412 95 144 1.0 1.0 0.00 0.00 0.00 57 1015.9
20260905155906 94 154 0.0 1.0 0.00 0.00 0.00 59 1015.9
20260905155401 93 63 3.0 6.0 0.00 0.00 0.00 57 1016.0
20260905154900 94 114 2.0 3.0 0.00 0.00 0.00 56 1015.9
20260905154355 94 127 2.0 2.0 0.00 0.00 0.00 58 1016.1
20260905153851 94 125 2.0 2.0 0.00 0.00 0.00 58 1016.0
20260905153347 94 148 2.0 2.0 0.00 0.00 0.00 59 1016.2
20260905152847 94 150 2.0 2.0 0.00 0.00 0.00 59 1016.2
20260905152345 93 127 2.0 2.0 0.00 0.00 0.00 61 1015.9
20260905151841 93 154 1.0 2.0 0.00 0.00 0.00 61 1016.1
20260905151337 92 135 2.0 2.0 0.00 0.00 0.00 62 1016.0
20260905150837 92 158 1.0 2.0 0.00 0.00 0.00 62 1016.1
20260905150332 91 126 1.0 2.0 0.00 0.00 0.00 63 1016.1
20260905145829 91 134 1.0 2.0 0.00 0.00 0.00 66 1016.1
20260905145328 91 152 1.0 2.0 0.00 0.00 0.00 63 1016.1
20260905144827 91 357 5.0 5.0 0.00 0.00 0.00 64 1016.2
20260905144323 89 237 2.0 3.0 0.00 0.00 0.00 67 1016.0
20260905143821 88 182 1.0 1.0 0.00 0.00 0.00 71 1016.1
20260905143316 88 280 5.0 5.0 0.00 0.00 0.00 71 1016.1
20260905142815 89 272 5.0 7.0 0.00 0.00 0.00 70 1015.9
20260905142309 88 173 2.0 3.0 0.00 0.00 0.00 70 1016.4
20260905141806 88 170 1.0 1.0 0.00 0.00 0.00 71 1015.9
20260905141301 87 161 1.0 1.0 0.00 0.00 0.00 72 1016.0
20260905140757 86 173 1.0 1.0 0.00 0.00 0.00 73 1016.0
20260905140256 86 166 0.0 1.0 0.00 0.00 0.00 75 1015.9
20260905135755 85 290 4.0 5.0 0.00 0.00 0.00 77 1016.1
20260905135252 84 213 2.0 2.0 0.00 0.00 0.00 79 1016.2
20260905134752 84 265 3.0 5.0 0.00 0.00 0.00 79 1016.2
20260905134251 83 276 3.0 3.0 0.00 0.00 0.00 80 1016.4
20260905133745 83 260 3.0 3.0 0.00 0.00 0.00 81 1016.4
20260905133241 83 226 3.0 3.0 0.00 0.00 0.00 81 1016.4
20260905132739 82 177 1.0 1.0 0.00 0.00 0.00 82 1016.1
20260905132236 82 196 2.0 2.0 0.00 0.00 0.00 82 1016.4
20260905131730 82 232 3.0 3.0 0.00 0.00 0.00 83 1016.3
20260905131226 81 270 5.0 5.0 0.00 0.00 0.00 83 1016.1
20260905130726 81 230 3.0 3.0 0.00 0.00 0.00 83 1016.4
20260905130225 81 175 0.0 1.0 0.00 0.00 0.00 85 1016.1
20260905125720 80 176 0.0 0.0 0.00 0.00 0.00 87 1016.2
20260905125216 80 192 3.0 3.0 0.00 0.00 0.00 88 1016.1
20260905124712 80 168 0.0 1.0 0.00 0.00 0.00 87 1016.1
20260905124208 79 168 0.0 0.0 0.00 0.00 0.00 89 1016.2
20260905123702 78 168 0.0 0.0 0.00 0.00 0.00 91 1016.1
20260905123200 78 169 0.0 0.0 0.00 0.00 0.00 91 1016.0
20260905122659 77 171 0.0 0.0 0.00 0.00 0.00 91 1016.1
20260905122153 76 171 0.0 0.0 0.00 0.00 0.00 92 1016.0
20260905121648 76 171 0.0 1.0 0.00 0.00 0.00 92 1015.7
20260905121144 76 171 0.0 0.0 0.00 0.00 0.00 92 1015.7
20260905120643 76 171 1.0 1.0 0.00 0.00 0.00 91 1015.7
20260905120138 76 182 0.0 0.0 0.00 0.00 0.00 91 1015.6
20260905115637 76 183 0.0 0.0 0.00 0.00 0.00 91 1015.6
20260905115133 76 184 0.0 0.0 0.00 0.00 0.00 91 1015.6
20260905114632 76 187 1.0 1.0 0.00 0.00 0.00 90 1015.7
20260905114131 77 193 1.0 2.0 0.00 0.00 0.00 88 1015.4
20260905113626 78 183 1.0 1.0 0.00 0.00 0.00 85 1015.5
20260905113121 78 155 0.0 0.0 0.00 0.00 0.00 86 1015.4
20260905112618 78 149 1.0 1.0 0.00 0.00 0.00 87 1015.4
20260905112112 77 154 1.0 1.0 0.00 0.00 0.00 88 1015.5
20260905111606 78 169 0.0 1.0 0.00 0.00 0.00 86 1015.5
20260905111105 78 185 1.0 2.0 0.00 0.00 0.00 87 1015.5
20260905110605 78 213 3.0 3.0 0.00 0.00 0.00 87 1015.1
20260905110100 78 131 2.0 2.0 0.00 0.00 0.00 85 1015.3
20260905105554 78 146 0.0 0.0 0.00 0.00 0.00 87 1015.3
20260905105053 77 146 1.0 2.0 0.00 0.00 0.00 88 1015.4
20260905104550 77 148 0.0 1.0 0.00 0.00 0.00 89 1015.2
20260905104049 77 150 1.0 1.0 0.00 0.00 0.00 90 1015.4
20260905103545 76 152 0.0 0.0 0.00 0.00 0.00 90 1015.3
20260905103041 76 152 0.0 0.0 0.00 0.00 0.00 91 1015.4
20260905102536 76 152 0.0 0.0 0.00 0.00 0.00 91 1015.3
20260905102033 76 152 0.0 0.0 0.00 0.00 0.00 90 1015.6
20260905101531 76 153 0.0 1.0 0.00 0.00 0.00 90 1015.4
20260905101029 76 155 0.0 0.0 0.00 0.00 0.00 89 1015.5
20260905100526 77 156 0.0 0.0 0.00 0.00 0.00 89 1015.3
20260905100026 77 157 0.0 0.0 0.00 0.00 0.00 90 1015.4
20260905095520 76 155 0.0 0.0 0.00 0.00 0.00 91 1014.9
20260905095015 75 160 1.0 1.0 0.00 0.00 0.00 92 1015.4
20260905094510 75 158 0.0 0.0 0.00 0.00 0.00 92 1015.3
20260905094009 76 158 0.0 0.0 0.00 0.00 0.00 92 1015.2
20260905093504 76 159 0.0 0.0 0.00 0.00 0.00 91 1015.2
20260905093001 76 159 0.0 0.0 0.00 0.00 0.00 92 1015.2
20260905092456 76 159 1.0 1.0 0.00 0.00 0.00 91 1015.3
20260905091951 76 159 0.0 1.0 0.00 0.00 0.00 91 1015.1
20260905091451 76 158 0.0 0.0 0.00 0.00 0.00 91 1015.1
20260905090950 76 157 0.0 0.0 0.00 0.00 0.00 91 1014.9
20260905090445 76 157 0.0 0.0 0.00 0.00 0.00 91 1015.1
20260905085944 76 157 0.0 0.0 0.00 0.00 0.00 91 1015.1
20260905085444 76 157 0.0 0.0 0.00 0.00 0.00 91 1014.9
20260905084940 76 157 0.0 0.0 0.00 0.00 0.00 91 1015.3
20260905084439 77 157 0.0 0.0 0.00 0.00 0.00 90 1015.2
20260905083934 77 157 0.0 0.0 0.00 0.00 0.00 90 1015.3
20260905083430 77 157 0.0 0.0 0.00 0.00 0.00 89 1015.1
20260905082926 77 157 0.0 0.0 0.00 0.00 0.00 89 1015.2
20260905082421 77 156 0.0 0.0 0.00 0.00 0.00 88 1015.1
20260905081916 77 157 0.0 0.0 0.00 0.00 0.00 88 1015.2
20260905081411 78 157 1.0 1.0 0.00 0.00 0.00 88 1015.3
20260905080910 78 156 0.0 1.0 0.00 0.00 0.00 87 1015.3
20260905080410 78 155 0.0 0.0 0.00 0.00 0.00 87 1015.3
20260905075909 78 155 0.0 0.0 0.00 0.00 0.00 87 1015.2
20260905075403 78 155 0.0 0.0 0.00 0.00 0.00 87 1015.3
20260905074902 78 154 0.0 0.0 0.00 0.00 0.00 87 1015.2
20260905074358 78 154 0.0 0.0 0.00 0.00 0.00 87 1015.2
20260905073853 78 154 0.0 0.0 0.00 0.00 0.00 88 1015.5
20260905073343 77 155 0.0 0.0 0.00 0.00 0.00 89 1015.2
20260905072838 77 155 0.0 0.0 0.00 0.00 0.00 89 1015.4
20260905072333 77 155 0.0 0.0 0.00 0.00 0.00 89 1015.2
20260905071829 77 155 0.0 0.0 0.00 0.00 0.00 88 1015.4
20260905071326 77 155 0.0 0.0 0.00 0.00 0.00 88 1015.3
20260905070820 77 155 0.0 0.0 0.00 0.00 0.00 89 1015.3
20260905070317 77 155 0.0 0.0 0.00 0.00 0.00 88 1015.2
20260905065815 77 155 0.0 0.0 0.00 0.00 0.00 88 1015.5
20260905065313 77 155 0.0 0.0 0.00 0.00 0.00 88 1015.4
20260905064809 78 155 0.0 0.0 0.00 0.00 0.00 88 1015.3
20260905064305 78 155 0.0 0.0 0.00 0.00 0.00 87 1015.4
20260905063803 78 155 0.0 0.0 0.00 0.00 0.00 86 1015.7
20260905063259 78 155 0.0 0.0 0.00 0.00 0.00 87 1015.5
20260905062754 78 155 0.0 0.0 0.00 0.00 0.00 87 1015.7
20260905062249 78 155 0.0 0.0 0.00 0.00 0.00 86 1015.3
20260905061743 79 155 0.0 0.0 0.00 0.00 0.00 85 1015.6
20260905061238 79 155 0.0 0.0 0.00 0.00 0.00 84 1015.7
20260905060732 80 155 0.0 0.0 0.00 0.00 0.00 83 1015.7
20260905060230 80 155 0.0 0.0 0.00 0.00 0.00 82 1015.6
20260905055728 80 155 0.0 0.0 0.00 0.00 0.00 82 1015.7
20260905055223 80 160 0.0 1.0 0.00 0.00 0.00 82 1015.7
20260905054718 80 159 1.0 1.0 0.00 0.00 0.00 82 1015.6
20260905054215 80 159 0.0 0.0 0.00 0.00 0.00 81 1015.5
20260905053714 81 162 0.0 0.0 0.00 0.00 0.00 81 1015.8
20260905053208 81 163 0.0 0.0 0.00 0.00 0.00 80 1015.6
20260905052703 81 164 0.0 1.0 0.00 0.00 0.00 80 1015.8
20260905052158 81 164 1.0 1.0 0.00 0.00 0.00 79 1016.0
20260905051652 82 163 0.0 0.0 0.00 0.00 0.00 79 1015.7
20260905051149 82 163 0.0 0.0 0.00 0.00 0.00 78 1016.0
20260905050645 82 164 0.0 1.0 0.00 0.00 0.00 78 1015.7
20260905050141 82 164 1.0 1.0 0.00 0.00 0.00 78 1015.7
20260905045641 82 164 1.0 1.0 0.00 0.00 0.00 77 1015.7
20260905045137 82 164 0.0 1.0 0.00 0.00 0.00 77 1015.8
20260905044637 82 167 1.0 1.0 0.00 0.00 0.00 77 1015.5
20260905044132 82 175 1.0 1.0 0.00 0.00 0.00 78 1015.7
20260905043630 83 167 0.0 1.0 0.00 0.00 0.00 76 1015.5
20260905043126 84 165 0.0 1.0 0.00 0.00 0.00 75 1015.8
20260905042624 84 163 1.0 1.0 0.00 0.00 0.00 74 1015.6
20260905042120 84 170 1.0 1.0 0.00 0.00 0.00 74 1015.5
20260905041615 84 180 2.0 2.0 0.00 0.00 0.00 74 1015.5
20260905041111 84 182 1.0 1.0 0.00 0.00 0.00 74 1015.7
20260905040611 84 204 2.0 2.0 0.00 0.00 0.00 74 1015.5
20260905040109 84 188 1.0 1.0 0.00 0.00 0.00 73 1015.8
20260905035605 84 178 1.0 1.0 0.00 0.00 0.00 74 1015.6
20260905035101 85 223 3.0 3.0 0.00 0.00 0.00 72 1015.8
20260905034557 85 199 2.0 2.0 0.00 0.00 0.00 72 1015.4
20260905034057 85 183 2.0 2.0 0.00 0.00 0.00 72 1015.9
20260905033556 85 182 1.0 1.0 0.00 0.00 0.00 72 1015.9
20260905033047 84 174 1.0 1.0 0.00 0.00 0.00 73 1015.9
20260905032546 85 178 0.0 0.0 0.00 0.00 0.00 74 1015.7
20260905032047 85 179 1.0 1.0 0.00 0.00 0.00 72 1016.0
20260905031543 85 192 1.0 2.0 0.00 0.00 0.00 72 1016.0
20260905031042 85 190 1.0 2.0 0.00 0.00 0.00 72 1016.0
20260905030538 85 189 2.0 2.0 0.00 0.00 0.00 73 1016.1
20260905030038 85 212 2.0 2.0 0.00 0.00 0.00 73 1015.8
20260905025533 85 172 1.0 1.0 0.00 0.00 0.00 72 1016.0
20260905025029 85 169 1.0 1.0 0.00 0.00 0.00 72 1016.1
20260905024524 83 182 0.0 0.0 0.00 0.00 0.00 75 1015.8
20260905024020 81 160 0.0 0.0 0.00 0.00 0.00 80 1016.0
20260905023515 82 156 0.0 0.0 0.00 0.00 0.00 83 1015.9
20260905023009 82 156 0.0 0.0 0.00 0.00 0.00 83 1015.8
20260905022503 82 156 0.0 0.0 0.00 0.00 0.00 82 1015.7
20260905021959 81 156 0.0 0.0 0.00 0.00 0.00 82 1015.7
20260905021458 81 156 0.0 0.0 0.00 0.00 0.00 82 1015.7
20260905020954 82 156 0.0 0.0 0.00 0.00 0.00 83 1015.9
20260905020454 82 156 0.0 0.0 0.00 0.00 0.00 84 1015.7
20260905015953 82 156 0.0 0.0 0.00 0.00 0.00 84 1015.6
20260905015452 82 156 0.0 0.0 0.00 0.00 0.00 83 1015.6
20260905014951 82 156 0.0 0.0 0.00 0.00 0.00 83 1015.6
20260905014447 82 161 0.0 0.0 0.00 0.00 0.00 83 1015.3
20260905013942 83 161 0.0 1.0 0.00 0.00 0.00 82 1015.2
20260905013438 83 161 0.0 0.0 0.00 0.00 0.00 81 1015.4
20260905012933 83 161 0.0 0.0 0.00 0.00 0.00 81 1015.4
20260905012428 83 161 0.0 0.0 0.00 0.00 0.00 81 1015.5
20260905011925 83 155 0.0 0.0 0.00 0.00 0.00 80 1015.3
20260905011420 84 164 0.0 0.0 0.00 0.00 0.00 79 1015.3
20260905010916 84 143 0.0 0.0 0.00 0.00 0.00 78 1014.9
20260905010411 85 143 0.0 0.0 0.00 0.00 0.00 78 1014.9
20260905005907 85 143 0.0 0.0 0.00 0.00 0.00 78 1014.9
20260905005403 85 142 0.0 0.0 0.00 0.00 0.00 77 1014.9
20260905004858 85 142 0.0 0.0 0.00 0.00 0.00 77 1014.8
20260905004358 86 142 0.0 0.0 0.00 0.00 0.00 76 1014.6
20260905003853 86 142 0.0 0.0 0.00 0.00 0.00 75 1014.9
20260905003349 87 141 0.0 0.0 0.00 0.00 0.00 74 1014.7
20260905002844 87 141 0.0 0.0 0.00 0.00 0.00 74 1014.6
20260905002344 88 141 0.0 0.0 0.00 0.00 0.00 72 1014.6
20260905001838 89 141 0.0 0.0 0.00 0.00 0.00 72 1014.7
20260905001333 89 141 0.0 0.0 0.00 0.00 0.00 71 1014.6
20260905000828 91 141 0.0 0.0 0.00 0.00 0.00 68 1014.6
20260905000325 91 141 0.0 0.0 0.00 0.00 0.00 66 1014.7
20260904235819 92 141 0.0 0.0 0.00 0.00 0.00 65 1014.6
20260904235314 93 141 0.0 0.0 0.00 0.00 0.00 63 1014.6
20260904234809 93 141 0.0 0.0 0.00 0.00 0.00 64 1014.4